カタログに戻る

ONEWEB-0673

運用中通信PO
NORAD 55832·PAYLOAD·🇬🇧 United Kingdom

打ち上げ Mar 9, 2023 から Cape Canaveral Space Force Station

Loading…

次のパス (今後24時間)

TLE

最新Source: CelesTrak SupGP

元期: Sep 14, 2026, 16:03 UTC

1 55832C 23029AN  26257.66891618 -.00002503  00000+0 -62600-2 0  2570
2 55832  87.9109 287.1449 0002079  92.8738 328.3435 13.19728625    12

AllMySatでONEWEB-0673をリアルタイム追跡

Download on the App Store